* Astronomy

Members Login
Username 
 
Password 
    Remember Me  
Post Info TOPIC: Asteroid 2011 EK40


L

Posts: 131433
Date:
Asteroid 2011 EK40
Permalink  
 


Orbital elements:
2011 EK40 Earth MOID = 0.0426 AU
Epoch 2011 Feb. 28.0 TT = JDT 2455620.5 MPC
M 3.65828 (2000.0) P Q
n 0.73705908 Peri. 354.07576 -0.89647108 -0.44265748
a 1.2137647 Node 159.61471 +0.40884195 -0.84359732
e 0.1493689 Incl. 3.26653 +0.17084454 -0.30397025
P 1.34 H 27.4 G 0.15
From 8 observations 2011 Mar. 10.

MPEC 2011 - E54


__________________
Page 1 of 1  sorted by
 
Quick Reply

Please log in to post quick replies.



Create your own FREE Forum
Report Abuse
Powered by ActiveBoard